Location: Petruro
(41.0333°N, 14.7833°E)
Time: 08:20:14
(UTC+00:00)

ERBS - Pass Details

Date: 20 June 2021
Orbit: 397 x 416 km, 57.0° (Epoch: 03 August)

Event Time Altitude Azimuth Distance (km) Brightness Sun altitude
Exits shadow 00:51:41 20° 109° (ESE) 995 4.2 -20.7°
Drops below altitude 10° 00:53:36 10° 74° (ENE) 1,446 5.5 -20.6°
Sets 00:55:59 0° 58° (ENE) 2,312 7.0 -20.4°
